Location: *
(45.5224°N, 122.7471°W)
Time: 22:24:58
(UTC+00:00)

Meteor 2-4 Rocket - Pass Details

Date: 09 April 2020
Orbit: 799 x 909 km, 81.2° (Epoch: 02 June)

Event Time Altitude Azimuth Distance (km) Brightness Sun altitude
Exits shadow 12:28:09 14° 226° (SW) 2,311 5.4 -12.0°
Maximum altitude 12:32:46 37° 289° (WNW) 1,369 4.5 -11.2°
Drops below altitude 10° 12:38:11 10° 356° (N) 2,568 6.5 -10.4°
Sets 12:40:49 0° 5° (N) 3,497 7.3 -9.9°
